Date,TemperatureHighF,TemperatureAvgF,TemperatureLowF,DewpointHighF,DewpointAvgF,DewpointLowF,HumidityHigh,HumidityAvg,HumidityLow,PressureMaxIn,PressureMinIn,WindSpeedMaxMPH,WindSpeedAvgMPH,GustSpeedMaxMPH,PrecipitationSumIn
2013-1-1,33.7,26.7,17.7,32.9,23.8,13.4,97,89,82,30.27,30.09,9,5,11,0.00
2013-1-2,26.6,16.4,8.7,16.3,11.9,6.8,94,83,59,30.34,30.25,4,0,4,0.00
2013-1-3,37.7,23.6,8.5,29.6,19.7,6.2,94,85,68,30.42,30.26,6,1,9,0.02
2013-1-4,39.2,27.6,19.7,28.9,23.5,17.5,94,85,65,30.48,30.37,6,1,10,0.00
2013-1-5,40.5,31.0,18.2,35.1,27.7,16.8,96,88,73,30.38,30.16,3,0,7,0.02
2013-1-6,38.1,32.4,19.2,34.8,28.2,17.8,95,85,73,30.43,30.08,15,4,20,0.00
2013-1-7,40.7,26.0,15.4,31.3,22.7,13.9,96,88,67,30.50,30.24,3,0,8,0.00
2013-1-8,47.7,33.8,20.3,36.0,29.6,19.1,97,85,63,30.29,30.19,3,0,5,0.00
2013-1-9,56.1,43.9,35.4,47.4,40.0,33.6,98,87,60,30.51,30.22,7,1,9,0.22
2013-1-10,58.9,46.4,36.5,58.2,43.6,34.0,98,90,67,30.49,29.86,6,3,12,1.07
2013-1-11,61.7,56.8,52.2,60.0,53.6,49.1,98,89,75,29.94,29.81,7,2,11,0.46
2013-1-12,65.0,55.0,41.4,59.7,53.2,40.6,98,94,82,29.97,29.65,19,3,31,1.90
2013-1-13,41.2,31.6,23.4,40.1,29.8,18.6,98,93,82,30.35,29.80,15,7,19,0.48
2013-1-14,26.5,23.6,20.1,22.6,19.8,16.3,89,85,81,30.51,30.35,8,5,12,0.00
2013-1-15,30.6,26.8,21.4,27.3,23.7,19.3,92,88,79,30.43,30.14,10,4,13,0.00
2013-1-16,35.3,31.3,28.1,29.5,27.4,25.6,91,85,74,30.16,30.06,6,2,9,0.00
2013-1-17,42.0,34.4,26.6,36.7,30.0,24.3,94,84,71,30.51,30.14,16,4,21,0.02
2013-1-18,43.2,33.2,21.9,33.9,27.9,20.7,97,82,64,30.55,30.20,5,1,11,0.00
2013-1-19,57.4,46.4,34.7,42.4,36.7,30.0,84,70,51,30.23,29.94,8,4,17,0.00
2013-1-20,43.5,32.7,25.5,39.0,23.1,16.5,84,68,50,30.34,30.07,13,5,18,0.00
2013-1-21,26.9,21.9,16.1,20.1,10.9,3.2,82,63,48,30.40,30.25,17,10,24,0.00
2013-1-22,21.1,17.3,11.3,11.6,5.8,1.5,74,61,51,30.51,30.40,10,4,14,0.00
2013-1-23,38.9,27.1,13.7,25.7,18.3,9.9,90,70,52,30.43,30.16,12,2,17,0.00
2013-1-24,29.4,24.0,16.5,21.7,11.4,7.5,73,59,43,30.64,30.31,14,5,21,0.00
2013-1-25,38.9,29.7,23.6,26.1,20.7,7.5,91,70,43,30.35,30.13,8,2,11,0.00
2013-1-26,36.9,29.0,22.9,25.0,21.6,16.5,88,74,55,30.42,30.23,7,2,11,0.00
2013-1-27,45.1,34.5,25.6,43.8,31.4,20.8,97,88,79,30.38,30.06,6,2,10,0.18
2013-1-28,58.3,53.1,45.4,57.5,51.9,43.9,98,95,90,30.09,29.96,4,2,10,0.44
2013-1-29,68.4,61.0,53.6,62.2,58.2,53.0,98,91,80,29.97,29.34,22,4,27,0.53
2013-1-30,55.6,44.4,30.6,53.9,41.3,22.7,98,89,72,29.86,29.35,24,10,34,0.82
2013-1-31,33.5,27.4,13.9,29.1,20.7,4.0,95,76,64,30.34,29.86,19,12,24,0.00
2013-2-1,25.2,16.2,11.7,19.1,-11.4,-99.9,79,54,57,30.52,30.32,16,-203,22,0.00
2013-2-2,38.5,30.6,24.3,29.7,22.9,-99.9,89,75,66,30.32,30.07,12,-7,15,0.00
2013-2-3,33.5,28.5,24.5,29.1,24.1,21.4,96,84,65,30.18,30.02,17,4,25,0.00
2013-2-4,47.9,35.4,23.1,41.1,30.6,20.4,94,83,71,30.11,29.82,7,2,13,0.00
2013-2-5,50.4,36.9,26.4,41.3,32.5,25.1,96,85,67,30.14,29.90,8,2,13,0.00
2013-2-6,46.2,36.0,25.7,36.6,31.6,24.7,97,85,65,30.28,30.14,4,1,8,0.00
2013-2-7,63.5,47.3,32.8,50.6,41.1,30.7,95,81,54,30.15,29.83,14,2,19,0.12
2013-2-8,42.2,36.2,34.0,40.0,32.1,28.4,92,85,80,30.40,29.95,15,9,21,0.00
2013-2-9,44.4,37.6,32.4,35.0,31.2,27.4,86,78,68,30.41,30.12,6,2,11,0.00
2013-2-10,54.1,47.6,38.6,51.8,44.8,34.6,95,90,78,30.12,29.67,8,3,17,0.54
2013-2-11,53.3,44.3,37.4,49.7,34.3,30.5,89,68,53,30.15,29.75,17,8,24,0.00
2013-2-12,47.9,37.9,27.2,36.2,32.5,26.0,97,82,59,30.19,29.93,6,1,9,0.00
2013-2-13,50.6,40.4,35.1,37.1,34.4,31.9,93,80,57,29.93,29.83,7,2,12,0.00
2013-2-14,55.1,43.8,35.8,42.0,37.6,34.4,96,80,56,30.05,29.86,13,4,18,0.00
2013-2-15,38.7,34.7,25.3,35.4,28.3,21.4,95,78,57,30.24,30.05,12,4,18,0.00
2013-2-16,33.5,27.9,23.5,22.9,19.3,15.1,90,71,51,30.25,30.18,12,6,19,0.00
2013-2-17,43.5,30.6,18.8,26.2,22.1,16.4,93,72,46,30.29,30.07,5,2,12,0.00
2013-2-18,59.4,45.3,33.7,48.1,39.0,26.0,94,79,58,30.07,29.61,24,5,28,0.51
2013-2-19,39.3,31.2,26.1,36.2,24.1,17.1,89,75,66,30.28,29.81,18,12,28,0.00
2013-2-20,27.1,23.8,19.8,19.5,16.7,13.0,92,74,64,30.43,30.27,12,5,16,0.00
2013-2-21,34.1,27.8,20.6,32.8,24.7,18.5,96,88,72,30.35,29.86,13,5,19,0.00
2013-2-22,40.8,35.7,29.7,36.3,32.6,24.9,97,89,78,30.08,29.83,8,3,13,0.26
2013-2-23,37.6,30.6,24.0,29.3,25.5,21.5,92,81,66,30.08,29.99,7,2,10,0.00
2013-2-24,46.9,33.2,22.5,33.7,27.8,21.3,97,82,56,30.19,30.04,3,0,6,0.00
2013-2-25,49.4,40.2,30.0,37.4,31.8,27.5,93,73,57,30.12,29.64,13,6,21,0.03
2013-2-26,51.1,43.0,38.2,47.8,40.2,30.9,97,90,62,29.64,29.36,13,5,19,0.84
2013-2-27,38.4,36.2,34.1,36.1,33.5,30.9,94,90,82,29.84,29.60,13,9,17,0.02
2013-2-28,37.3,35.4,34.0,34.9,33.1,30.9,95,91,88,30.07,29.83,11,7,16,0.01
2013-3-1,37.1,33.8,32.3,33.9,32.3,30.6,97,94,81,30.13,30.03,10,5,15,0.04
2013-3-2,33.1,31.2,28.8,30.2,26.7,22.0,92,83,68,30.21,30.12,11,8,17,0.00
2013-3-3,37.9,29.6,23.3,26.4,22.1,18.1,92,75,48,30.21,30.11,6,2,11,0.00
2013-3-4,48.0,38.7,27.6,34.7,29.7,24.1,89,70,58,30.14,29.83,9,4,17,0.00
2013-3-5,43.7,37.4,32.5,41.3,33.8,26.8,97,87,64,29.97,29.76,21,9,27,0.08
2013-3-6,34.1,32.6,31.5,30.1,28.4,26.8,90,84,80,30.37,29.97,17,10,25,0.00
2013-3-7,39.2,34.2,30.6,31.0,29.2,26.8,93,82,71,30.45,30.35,3,1,6,0.00
2013-3-8,51.0,38.9,27.1,37.0,31.9,25.3,95,77,55,30.50,30.29,6,2,13,0.00
2013-3-9,60.4,49.0,36.9,42.3,37.8,32.2,84,66,50,30.29,29.89,6,3,13,0.00
2013-3-10,66.4,57.1,51.0,54.4,47.4,40.6,97,72,52,29.90,29.67,10,3,14,0.34
2013-3-11,53.0,42.2,36.6,51.8,39.3,31.1,96,89,81,29.99,29.65,14,7,20,0.03
2013-3-12,47.6,38.9,30.2,34.4,30.9,26.8,89,74,54,30.17,29.98,14,6,20,0.00
2013-3-13,37.3,32.0,24.5,30.7,23.9,20.8,92,72,59,30.43,30.16,16,8,21,0.00
2013-3-14,43.9,32.6,22.1,34.6,27.8,20.9,96,83,57,30.43,30.16,4,1,11,0.00
2013-3-15,64.0,47.1,28.3,54.0,40.6,27.3,97,80,58,30.17,29.66,5,0,11,0.00
2013-3-16,64.3,50.4,38.6,53.9,44.3,35.4,91,80,67,30.04,29.64,15,6,21,0.05
2013-3-17,39.5,37.0,34.3,36.9,34.7,31.8,96,92,87,30.11,29.84,15,7,18,1.50
2013-3-18,45.9,41.6,38.0,43.1,39.1,31.5,97,91,70,29.96,29.65,13,5,20,0.78
2013-3-19,46.2,37.7,30.4,31.6,26.7,22.5,89,65,45,30.20,29.96,14,7,19,0.00
2013-3-20,35.4,31.3,27.0,28.2,21.7,15.7,94,68,54,30.22,30.11,16,8,25,0.00
2013-3-21,36.4,27.8,22.3,24.0,18.6,14.7,90,69,52,30.15,30.03,10,3,16,0.00
2013-3-22,40.6,33.1,23.2,32.1,24.5,20.4,93,73,49,30.10,30.03,5,1,9,0.00
2013-3-23,55.0,44.8,36.4,36.4,32.0,27.6,83,62,43,30.07,29.80,10,4,14,0.00
2013-3-24,45.6,38.7,35.0,36.1,34.5,32.4,95,86,61,29.85,29.45,14,8,25,0.16
2013-3-25,35.1,33.3,31.3,32.8,30.9,29.1,96,91,81,30.14,29.80,16,10,22,0.01
2013-3-26,43.1,36.0,32.6,35.8,30.3,26.7,91,80,60,30.35,30.14,12,7,18,0.01
2013-3-27,46.7,38.1,30.5,33.5,29.6,27.1,89,72,52,30.41,30.33,8,3,12,0.00
2013-3-28,55.7,41.0,26.7,39.3,30.7,25.2,96,71,36,30.42,30.30,4,1,11,0.00
2013-3-29,56.9,47.5,38.5,47.1,40.8,33.3,96,78,68,30.31,30.21,4,1,9,0.00
2013-3-30,60.9,47.0,34.9,49.8,42.4,34.1,98,86,49,30.23,29.92,6,1,13,0.06
2013-3-31,64.5,53.6,47.5,52.6,47.8,41.7,97,82,50,29.92,29.83,9,2,13,0.01
2013-4-1,51.6,43.5,36.6,42.1,30.8,25.5,75,61,42,30.21,29.90,12,7,19,0.00
2013-4-2,48.1,37.7,27.2,31.0,25.0,19.1,87,62,35,30.36,30.21,7,2,13,0.00
2013-4-3,53.3,42.0,28.8,30.1,26.2,21.5,93,57,31,30.41,30.27,10,3,17,0.00
2013-4-4,61.4,46.7,33.2,38.0,28.6,23.4,90,53,26,30.27,30.02,7,2,12,0.00
2013-4-5,64.0,48.3,32.7,44.0,37.1,30.4,96,70,36,30.14,30.03,10,2,13,0.00
2013-4-6,74.5,59.9,42.5,48.3,41.4,35.3,92,53,33,30.10,29.79,7,3,18,0.00
2013-4-7,76.4,65.0,57.0,59.2,52.6,42.3,95,66,45,29.93,29.82,7,2,14,1.02
2013-4-8,74.8,65.4,56.1,61.6,58.2,54.1,94,79,60,29.92,29.81,8,2,15,0.00
2013-4-9,82.5,70.6,59.7,65.7,61.7,56.0,91,75,53,29.95,29.84,9,3,22,0.00
2013-4-10,83.0,73.1,63.4,70.0,65.8,61.0,95,79,62,29.87,29.64,13,2,20,0.22
2013-4-11,66.6,56.1,42.5,64.0,53.4,36.2,96,91,76,29.77,29.57,13,6,18,0.64
2013-4-12,49.9,44.0,37.5,38.5,36.1,33.1,85,74,60,30.02,29.72,13,6,22,0.00
2013-4-13,60.7,49.0,36.2,45.5,38.9,33.4,91,70,46,30.07,29.96,13,4,20,0.00
2013-4-14,78.3,62.0,44.4,54.2,48.0,41.1,89,63,38,29.97,29.72,8,3,19,0.00
2013-4-15,75.6,64.0,55.3,63.8,57.6,50.6,95,80,65,29.93,29.79,7,2,13,0.00
2013-4-16,66.5,57.5,53.7,61.2,55.0,51.3,95,91,82,30.12,29.85,12,5,18,0.13
2013-4-17,85.7,68.0,53.0,73.1,62.7,51.6,96,84,59,30.12,29.77,7,3,14,0.00
2013-4-18,78.6,67.4,45.1,68.2,62.4,43.0,95,85,65,29.77,29.59,16,5,23,1.66
2013-4-19,47.9,43.5,38.5,42.6,35.2,31.7,93,73,60,30.07,29.66,18,9,25,0.10
2013-4-20,54.0,44.4,32.5,37.1,33.5,27.7,94,67,40,30.39,30.07,10,3,16,0.00
2013-4-21,61.7,50.2,38.0,43.2,35.4,31.3,78,59,34,30.48,30.30,7,3,14,0.00
2013-4-22,73.5,57.5,39.9,52.7,44.2,36.3,88,64,37,30.31,30.04,5,1,11,0.00
2013-4-23,64.1,56.5,46.8,62.0,52.9,45.5,96,88,74,30.06,29.78,13,2,17,0.30
2013-4-24,50.9,44.4,38.7,45.5,40.0,35.8,96,85,57,30.27,29.88,14,6,17,0.88
2013-4-25,59.5,48.0,35.6,45.8,39.0,34.6,97,74,40,30.36,30.26,13,4,17,0.00
2013-4-26,64.7,52.4,40.3,49.8,43.7,38.1,94,74,47,30.43,30.29,5,1,9,0.00
2013-4-27,59.8,54.9,50.5,56.3,52.3,48.3,97,91,80,30.33,29.90,6,2,13,0.05
2013-4-28,58.4,57.2,56.3,57.1,55.9,54.1,98,95,91,29.94,29.83,7,2,11,0.13
2013-4-29,75.5,62.4,49.2,60.5,55.9,48.3,97,81,57,29.99,29.85,5,1,11,0.00
2013-4-30,85.0,68.2,53.6,64.4,58.8,52.2,96,75,46,29.98,29.87,4,1,12,0.00
2013-5-1,84.3,69.8,55.3,65.1,59.8,54.1,96,74,41,30.09,29.98,5,1,10,0.00
2013-5-2,81.7,68.9,57.7,66.0,61.8,56.8,97,80,52,30.11,30.00,6,2,10,0.00
2013-5-3,75.5,65.5,55.1,63.0,58.8,53.1,97,81,53,30.02,29.76,9,3,19,0.20
2013-5-4,55.2,49.1,47.4,53.8,47.8,46.1,97,95,93,30.01,29.85,4,1,7,1.14
2013-5-5,59.1,54.9,48.7,57.2,53.4,47.6,98,94,90,29.98,29.87,10,5,13,0.57
2013-5-6,66.9,59.6,53.7,61.0,56.7,52.1,97,91,78,29.94,29.85,10,4,14,0.05
2013-5-7,75.5,64.9,54.6,63.3,58.2,53.8,97,81,54,30.01,29.92,7,2,11,0.00
2013-5-8,81.1,67.5,53.3,62.5,57.5,52.6,98,74,42,30.02,29.93,6,1,9,0.00
2013-5-9,80.1,68.8,58.3,68.1,62.1,57.2,97,81,55,29.98,29.81,6,1,15,0.12
2013-5-10,73.1,65.0,55.7,66.9,61.4,53.7,95,88,76,29.96,29.81,11,3,16,0.55
2013-5-11,68.8,58.3,49.2,58.4,50.0,38.8,96,76,42,30.11,29.92,17,6,23,0.00
2013-5-12,60.1,50.9,42.7,41.0,37.9,31.6,92,63,41,30.20,30.11,12,5,17,0.00
2013-5-13,69.5,54.9,39.2,47.1,39.8,32.1,97,63,28,30.24,30.09,8,2,13,0.00
2013-5-14,86.8,70.2,49.2,65.1,56.3,42.3,82,63,45,30.09,29.80,8,2,16,0.00
2013-5-15,87.6,77.6,68.0,66.3,62.9,59.4,79,62,46,29.94,29.82,10,3,16,0.00
2013-5-16,77.4,70.4,65.9,72.7,66.9,62.1,97,89,77,29.95,29.84,8,1,11,0.26
2013-5-17,75.3,69.5,65.1,68.4,65.8,63.3,97,88,72,29.99,29.93,5,1,12,0.08
2013-5-18,79.7,69.9,64.0,70.2,66.0,62.6,97,88,72,30.00,29.91,4,1,8,0.00
2013-5-19,89.5,75.6,62.1,77.8,70.3,61.2,98,85,66,29.92,29.77,5,1,12,0.00
2013-5-20,87.5,79.6,72.8,73.6,71.1,69.4,90,76,59,29.91,29.75,6,3,12,0.00
2013-5-21,80.4,71.7,63.9,71.3,66.5,62.9,98,85,64,29.93,29.72,22,3,32,0.88
2013-5-22,78.1,70.9,65.7,66.0,63.8,59.4,96,79,57,29.82,29.69,9,3,16,0.00
2013-5-23,66.8,60.9,50.8,61.0,56.0,45.2,95,84,73,30.22,29.82,12,5,20,0.00
2013-5-24,72.2,56.2,42.8,53.1,45.1,38.4,94,69,40,30.38,30.21,8,3,14,0.00
2013-5-25,70.5,59.7,45.7,54.7,50.0,44.8,97,73,45,30.38,30.17,7,2,12,0.00
2013-5-26,75.8,64.3,55.9,60.8,55.8,49.8,92,75,56,30.25,30.06,7,2,14,0.06
2013-5-27,85.9,72.2,60.0,69.4,63.2,57.5,96,75,50,30.06,29.75,20,2,29,0.15
2013-5-28,86.0,75.8,64.5,71.2,67.2,63.0,96,76,54,29.94,29.83,9,3,20,0.00
2013-5-29,87.5,77.8,64.9,70.3,65.6,60.9,89,67,46,30.00,29.89,6,2,13,0.00
2013-5-30,85.5,77.5,69.0,75.3,69.5,65.8,95,77,59,29.98,29.85,8,2,37,0.52
2013-5-31,83.0,74.0,64.0,73.3,69.6,62.7,97,87,71,29.97,29.80,13,2,19,2.97
2013-6-1,76.9,68.2,63.7,73.0,65.8,63.1,98,92,80,29.92,29.73,18,3,25,1.60
2013-6-2,70.7,65.9,61.3,65.0,61.9,59.1,97,87,76,29.99,29.84,10,4,14,0.01
2013-6-3,68.6,61.5,55.3,59.1,55.1,51.8,96,80,56,30.08,29.97,7,3,10,0.00
2013-6-4,76.4,65.7,52.7,63.1,58.6,51.9,98,79,58,30.10,29.99,5,1,10,0.00
2013-6-5,85.0,72.2,59.5,69.3,63.3,57.9,95,75,50,30.01,29.81,3,0,7,0.00
2013-6-6,82.5,73.5,68.8,69.0,66.1,62.9,94,79,56,29.82,29.74,7,2,11,0.00
2013-6-7,74.8,67.7,61.6,66.2,62.4,58.9,96,84,69,29.87,29.76,9,4,14,0.00
2013-6-8,82.8,70.8,59.8,66.4,61.9,57.6,97,76,47,29.98,29.86,4,0,7,0.00
2013-6-9,81.1,70.6,61.4,69.1,64.4,59.4,97,82,51,29.98,29.78,6,1,12,0.08
2013-6-10,78.3,69.6,63.3,69.2,65.4,62.3,97,87,65,29.90,29.75,8,2,11,0.17
2013-6-11,89.5,76.0,59.8,76.2,69.0,58.9,98,80,60,29.99,29.83,4,1,9,0.00
2013-6-12,93.6,85.1,76.4,78.6,75.0,72.8,92,73,55,29.94,29.69,8,3,17,0.00
2013-6-13,85.0,77.1,62.5,74.1,65.0,56.1,85,68,42,29.95,29.67,13,6,20,0.00
2013-6-14,81.7,70.3,57.2,64.3,59.3,55.8,96,71,44,30.07,29.93,7,2,12,0.00
2013-6-15,91.3,75.9,61.4,70.5,64.5,60.4,97,71,44,30.09,29.91,15,1,24,0.00
2013-6-16,82.9,73.0,68.4,74.6,69.3,66.3,96,89,69,30.02,29.92,9,1,13,1.26
2013-6-17,89.8,74.3,64.8,77.1,70.0,63.0,97,88,60,29.97,29.82,13,1,18,1.75
2013-6-18,87.0,72.8,65.4,73.0,67.3,63.1,98,85,54,29.96,29.85,15,2,21,0.23
2013-6-19,87.4,74.5,63.4,71.6,67.6,62.6,98,81,55,30.05,29.95,4,1,8,0.01
2013-6-20,90.8,78.2,66.3,72.8,68.1,64.4,96,74,44,30.13,30.05,4,1,10,0.00
2013-6-21,92.0,80.6,68.1,76.4,71.6,66.5,95,76,52,30.12,30.02,4,1,8,0.00
2013-6-22,89.7,76.9,68.3,76.7,71.5,67.5,98,85,60,30.12,29.98,15,1,21,2.12
2013-6-23,79.7,70.4,66.7,75.1,68.8,66.0,98,95,81,30.11,29.99,8,1,14,2.55
2013-6-24,85.4,75.9,67.8,76.9,71.5,66.7,97,87,72,30.10,29.97,6,1,14,0.02
2013-6-25,91.3,81.6,72.4,78.7,75.0,70.8,96,81,62,30.00,29.81,5,1,11,0.00
2013-6-26,88.7,78.7,73.3,78.5,74.5,70.7,97,87,69,29.90,29.65,8,2,15,0.58
2013-6-27,90.8,81.2,72.4,80.4,74.2,70.3,98,81,52,29.82,29.72,9,3,15,0.00
2013-6-28,87.2,79.7,72.3,73.3,68.1,59.4,91,70,44,29.79,29.63,12,5,16,0.00
2013-6-29,80.5,70.9,64.8,69.4,65.3,63.3,97,83,62,29.67,29.58,11,3,14,0.15
2013-6-30,74.7,67.9,64.4,69.3,65.7,63.3,97,93,76,29.84,29.65,7,2,14,0.46
2013-7-1,68.5,66.0,63.5,67.0,64.8,62.6,98,96,92,29.90,29.81,10,4,14,4.50
2013-7-2,71.4,67.4,65.4,68.8,66.0,64.3,97,95,90,29.99,29.88,6,3,11,0.73
2013-7-3,82.9,69.7,63.8,68.3,64.7,61.1,98,86,56,30.08,29.97,5,1,8,0.00
2013-7-4,81.8,71.9,61.5,71.1,66.9,60.8,98,85,66,30.09,30.00,4,1,8,0.00
2013-7-5,81.2,72.0,64.1,72.0,68.3,63.2,98,89,70,30.09,30.00,3,0,8,0.01
2013-7-6,83.2,74.0,69.1,72.8,69.4,66.9,96,86,66,30.07,29.98,6,1,8,0.00
2013-7-7,89.8,76.7,64.3,76.0,70.2,63.4,97,82,55,30.08,29.99,3,1,7,0.00
2013-7-8,89.1,79.5,69.5,78.4,73.5,68.5,97,83,64,30.10,30.00,6,1,10,0.00
2013-7-9,93.1,83.4,75.4,80.0,76.4,73.3,94,81,59,30.05,29.92,5,1,10,0.00
2013-7-10,84.9,78.8,73.2,77.6,74.6,71.2,96,87,72,30.01,29.85,7,2,12,0.01
2013-7-11,81.3,74.3,63.6,73.2,64.4,59.6,97,73,51,30.02,29.91,8,3,15,0.00
2013-7-12,84.4,72.6,60.5,67.2,62.9,59.1,96,74,46,30.10,30.00,5,1,9,0.00
2013-7-13,85.1,73.0,61.1,69.6,64.7,59.8,97,78,52,30.07,29.99,6,2,12,0.00
2013-7-14,89.3,78.0,65.4,76.2,70.6,63.5,96,79,58,30.14,30.05,5,1,9,0.01
2013-7-15,89.2,81.0,72.9,78.3,74.4,71.2,95,81,66,30.24,30.13,6,1,13,0.00
2013-7-16,93.6,82.0,70.0,79.2,74.0,69.1,97,79,54,30.29,30.21,3,0,8,0.00
2013-7-17,96.9,83.5,72.0,81.1,75.4,71.0,97,79,50,30.31,30.15,2,0,5,0.00
2013-7-18,96.6,83.7,73.8,80.1,76.3,72.9,97,81,49,30.18,30.00,3,0,5,0.00
2013-7-19,92.1,83.4,74.7,77.7,75.4,73.2,97,79,57,30.00,29.86,6,2,10,0.00
2013-7-20,93.2,78.8,69.4,79.9,73.1,68.8,98,84,59,29.90,29.76,7,2,22,2.18
2013-7-21,87.5,75.7,68.6,77.4,71.6,68.0,98,88,62,29.94,29.83,2,0,7,0.02
2013-7-22,88.1,78.1,72.0,77.4,72.9,70.8,96,85,64,29.83,29.76,6,2,10,0.00
2013-7-23,91.0,80.8,71.9,80.8,74.6,67.5,98,83,65,29.85,29.73,7,2,12,0.00
2013-7-24,78.0,70.4,62.5,67.6,61.7,56.8,91,75,56,29.99,29.85,5,2,11,0.00
2013-7-25,81.6,69.1,57.1,66.6,61.2,56.0,97,78,48,30.09,29.99,4,1,9,0.00
2013-7-26,82.3,70.0,58.4,67.9,64.1,57.6,98,83,55,30.06,29.93,5,1,8,0.01
2013-7-27,77.5,69.4,54.8,66.8,61.3,52.6,96,77,53,29.98,29.89,8,3,16,0.15
2013-7-28,78.0,64.7,51.5,61.8,55.8,50.7,98,76,47,30.05,29.97,7,2,13,0.00
2013-7-29,81.0,69.1,55.0,69.4,61.5,54.1,97,79,48,30.15,30.04,5,0,7,0.00
2013-7-30,75.3,69.1,66.0,69.6,66.8,64.1,97,93,73,30.14,30.03,5,1,9,1.19
2013-7-31,83.2,74.7,69.3,76.3,71.2,68.4,98,89,74,30.04,29.92,2,1,5,0.03
2013-8-1,85.3,74.0,64.8,71.8,66.9,62.7,97,81,49,30.03,29.95,5,1,8,0.00
2013-8-2,85.7,73.4,62.8,71.5,67.7,61.9,98,84,57,30.00,29.92,4,1,7,0.00
2013-8-3,85.6,75.8,66.4,76.3,70.4,64.6,97,84,64,30.06,29.91,5,1,8,0.00
2013-8-4,80.0,70.1,60.5,67.4,62.7,59.1,97,79,53,30.16,30.06,4,1,10,0.00
2013-8-5,81.9,70.8,58.0,68.1,63.9,57.3,98,81,55,30.09,29.91,4,1,8,0.01
2013-8-6,87.6,76.1,69.5,78.3,71.7,66.7,96,87,66,29.92,29.85,3,1,7,0.00
2013-8-7,86.8,76.8,69.3,77.5,72.7,68.4,98,88,66,29.90,29.83,6,1,10,0.00
2013-8-8,87.2,75.9,68.1,77.7,72.6,67.2,98,90,70,29.93,29.83,6,1,12,0.21
2013-8-9,84.7,75.3,71.4,74.9,72.0,70.3,97,90,68,30.02,29.89,3,0,7,0.00
2013-8-10,87.6,77.5,70.0,73.2,70.2,67.2,97,80,55,30.10,30.01,4,0,8,0.00
2013-8-11,84.2,76.5,64.1,71.6,66.8,62.8,97,74,56,30.10,30.03,5,1,8,0.00
2013-8-12,86.1,72.9,62.2,76.3,69.5,61.3,98,90,68,30.07,29.87,3,0,6,0.50
2013-8-13,79.9,71.0,59.3,71.3,66.0,55.3,98,85,67,30.10,29.88,5,2,10,0.01
2013-8-14,73.0,62.1,50.8,58.4,54.5,49.7,97,78,54,30.18,30.09,6,2,13,0.00
2013-8-15,75.1,62.3,51.3,61.0,55.8,50.2,97,81,55,30.16,30.07,5,1,10,0.00
2013-8-16,78.5,66.1,52.6,65.5,59.1,51.8,97,80,54,30.13,30.08,5,1,9,0.00
2013-8-17,79.0,68.2,60.3,68.4,62.8,58.0,93,83,63,30.17,30.08,4,1,7,0.00
2013-8-18,84.6,72.1,62.9,71.4,65.7,60.8,96,82,54,30.15,30.05,4,1,7,0.00
2013-8-19,87.8,73.0,59.1,74.4,66.2,58.2,98,82,51,30.12,30.02,3,0,7,0.00
2013-8-20,90.8,75.7,61.9,75.7,68.9,61.0,98,82,54,30.11,30.01,4,0,6,0.00
2013-8-21,88.4,74.4,64.3,75.5,69.2,63.4,98,86,55,30.12,30.05,6,1,9,0.00
2013-8-23,87.3,76.6,67.9,74.5,70.7,66.4,97,83,60,30.09,30.01,5,1,8,0.01
2013-8-24,88.5,75.3,64.2,72.9,67.4,62.7,97,79,46,30.20,30.09,4,1,9,0.00
2013-8-25,92.8,75.1,58.5,74.5,66.0,57.7,97,77,41,30.27,30.16,4,0,8,0.00
2013-8-26,91.5,78.5,67.1,78.2,72.8,66.2,98,84,57,30.21,30.06,5,1,9,0.00
2013-8-27,92.4,80.1,71.3,79.3,74.1,70.2,97,84,59,30.08,29.96,5,1,8,0.00
2013-8-28,94.5,82.1,71.7,74.7,72.3,69.9,96,75,46,30.00,29.93,10,3,15,0.00
2013-8-29,90.7,79.5,68.4,80.2,74.7,67.3,97,86,69,30.00,29.93,3,1,6,0.00
2013-8-30,96.8,82.2,68.9,80.9,74.7,67.9,98,80,51,29.94,29.80,6,1,9,0.00
2013-8-31,97.3,85.3,74.2,80.6,75.9,70.3,95,76,46,29.83,29.69,12,2,28,0.00
2013-9-1,90.1,77.5,68.7,80.5,72.9,67.7,97,87,70,29.81,29.73,13,1,20,0.07
2013-9-2,86.3,74.7,66.5,73.3,68.1,63.8,98,82,55,29.90,29.79,6,1,12,0.01
2013-9-3,81.0,69.6,58.3,65.5,62.4,56.8,96,80,53,30.06,29.90,5,1,9,0.00
2013-9-4,85.8,67.6,53.9,68.0,60.6,53.1,98,81,45,30.15,30.06,3,0,7,0.00
2013-9-5,87.5,70.5,56.0,70.5,63.7,55.2,98,82,48,30.19,30.11,3,0,6,0.01
2013-9-6,89.2,73.4,59.7,74.0,66.3,58.8,98,81,51,30.17,30.03,3,0,9,0.00
2013-9-7,89.6,74.3,60.5,73.0,67.6,59.6,98,82,53,30.05,29.92,5,1,9,0.00
2013-9-8,87.4,75.2,68.1,77.2,71.3,66.8,97,88,68,29.97,29.89,3,0,6,0.00
2013-9-9,95.2,81.0,69.4,79.7,73.7,68.5,97,81,53,29.97,29.89,4,1,8,0.00
2013-9-10,91.9,80.9,73.1,80.7,75.2,71.7,97,84,58,30.08,29.96,4,1,6,0.00
2013-9-11,95.7,81.6,71.6,77.5,73.4,67.9,97,79,46,30.12,30.00,7,1,12,0.00
2013-9-12,83.3,75.4,64.6,73.4,67.5,56.1,96,78,52,30.04,29.92,7,2,12,0.04
2013-9-13,75.5,64.0,53.7,58.8,54.2,49.3,96,73,44,30.10,29.99,6,2,11,0.00
2013-9-14,75.4,62.0,47.5,53.9,49.6,45.4,96,68,39,30.16,30.05,4,1,8,0.00
2013-9-15,81.5,63.5,45.4,62.2,54.1,44.6,98,75,40,30.11,29.99,5,1,12,0.00
2013-9-16,73.5,66.6,57.8,63.1,60.5,55.4,93,81,65,30.24,30.04,6,2,11,0.00
2013-9-17,79.9,66.7,54.8,63.6,58.3,52.8,94,76,49,30.24,30.08,5,1,9,0.00
2013-9-18,84.1,70.6,62.5,74.3,66.8,59.5,97,88,70,30.12,29.98,4,1,8,0.49
2013-9-19,90.1,78.0,69.9,76.6,72.1,68.7,96,83,57,30.02,29.88,5,1,10,0.00
2013-9-20,76.0,71.8,65.3,72.4,69.4,63.1,97,92,84,29.92,29.81,5,1,7,0.35
2013-9-21,74.9,62.2,50.8,63.0,55.0,49.6,96,80,46,29.91,29.82,6,2,13,0.00
2013-9-22,75.0,59.6,47.8,56.7,51.9,46.9,98,79,44,30.01,29.91,4,1,8,0.01
2013-9-23,76.3,60.6,46.5,57.4,52.2,45.7,98,78,45,30.06,29.96,5,1,10,0.00
2013-9-24,82.7,65.6,49.3,66.2,58.9,48.1,97,81,50,29.98,29.82,5,1,9,0.00
2013-9-25,83.8,70.6,61.3,68.1,64.4,59.6,97,83,51,29.87,29.80,4,1,7,0.05
2013-9-26,84.3,68.5,54.8,66.0,59.5,52.0,97,76,42,30.03,29.87,4,0,8,0.00
2013-9-27,83.1,65.2,49.5,63.4,56.9,48.6,98,78,44,30.13,30.02,5,1,10,0.00
2013-9-28,84.0,69.2,54.6,67.2,59.6,53.5,97,75,43,30.10,29.98,6,1,12,0.00
2013-9-29,69.6,65.3,62.1,65.7,62.7,59.5,97,92,72,30.01,29.96,3,1,6,0.54
2013-9-30,75.6,66.9,60.7,68.5,64.1,59.8,97,91,75,29.99,29.91,3,0,7,0.00
2013-10-1,81.8,69.7,59.6,72.2,66.5,58.6,98,90,69,30.04,29.95,3,1,7,0.01
2013-10-2,79.2,70.9,67.5,72.9,69.0,66.3,97,94,80,30.07,29.98,4,0,11,0.11
2013-10-3,85.1,74.3,67.4,71.6,68.1,66.4,97,83,55,30.02,29.91,5,1,11,0.01
2013-10-4,87.6,75.5,66.4,74.2,69.9,64.9,96,84,59,30.01,29.92,5,1,13,0.27
2013-10-5,79.4,71.3,67.7,75.7,69.8,66.5,97,95,85,29.98,29.79,13,1,18,1.36
2013-10-6,68.1,58.9,48.9,67.2,51.9,44.0,97,79,51,29.89,29.76,14,4,21,0.16
2013-10-7,67.5,54.8,46.2,55.2,49.1,44.6,97,82,57,30.15,29.87,9,2,16,0.00
2013-10-8,73.3,57.1,44.1,58.0,49.9,43.3,98,80,45,30.23,30.13,5,1,10,0.00
2013-10-9,79.3,59.3,44.5,63.6,52.9,43.4,98,82,50,30.20,30.10,4,0,6,0.01
2013-10-10,82.3,64.7,51.4,66.3,58.6,50.6,98,83,49,30.16,30.02,2,0,7,0.00
2013-10-11,81.1,65.7,52.9,63.8,58.6,52.1,98,81,50,30.06,29.95,4,1,10,0.00
2013-10-12,77.1,64.9,55.9,67.4,61.2,54.9,97,89,68,30.14,29.99,6,1,9,0.01
2013-10-13,75.9,61.3,49.5,61.3,46.9,39.2,96,64,27,30.33,30.14,5,1,9,0.00
2013-10-14,72.3,57.0,43.9,56.3,49.4,41.4,94,77,54,30.33,30.11,4,1,7,0.00
2013-10-15,70.0,64.0,55.5,66.4,61.2,52.6,95,90,85,30.11,29.89,4,1,10,0.03
2013-10-16,66.0,55.9,43.1,64.5,49.1,41.8,96,79,56,30.01,29.89,8,3,12,0.01
2013-10-17,60.9,49.9,41.6,50.8,46.7,40.6,97,89,64,29.99,29.93,8,2,12,0.16
2013-10-18,66.6,53.1,43.3,53.6,47.1,42.5,98,82,52,30.04,29.94,7,2,12,0.01
2013-10-19,57.1,48.3,41.2,47.2,42.6,37.4,96,82,49,30.02,29.90,9,3,15,0.26
2013-10-20,66.7,52.1,39.2,47.8,43.6,37.8,96,75,48,30.02,29.93,7,2,14,0.00
2013-10-21,59.4,50.7,38.4,51.1,45.2,35.7,92,82,67,30.06,29.95,8,2,11,0.00
2013-10-22,56.6,45.0,31.1,46.2,38.1,30.1,97,79,50,30.08,29.82,12,2,17,0.01
2013-10-23,48.8,42.9,38.9,42.4,36.4,30.9,91,79,53,30.12,29.86,12,5,17,0.00
2013-10-24,46.1,40.0,30.8,38.7,31.1,25.4,93,72,46,30.40,30.11,12,4,18,0.00
2013-10-25,53.2,37.0,24.0,33.4,28.2,22.8,96,74,39,30.53,30.27,5,1,8,0.00
2013-10-26,64.3,47.0,31.9,47.4,36.5,28.8,89,68,51,30.28,29.97,10,3,16,0.00
2013-10-27,62.6,42.4,28.2,40.9,33.7,27.2,97,76,35,30.14,30.04,6,0,8,0.00
2013-10-28,69.5,46.7,30.9,45.8,37.0,29.8,97,74,33,30.28,30.09,3,0,6,0.00
2013-10-29,58.2,49.4,37.3,56.3,47.4,34.9,97,93,86,30.30,30.10,3,1,7,0.12
2013-10-30,74.9,65.6,57.1,68.9,62.4,56.3,98,90,78,30.11,29.91,3,1,9,0.08
2013-10-31,67.5,62.8,54.0,66.3,61.2,51.8,97,95,86,29.91,29.35,17,4,35,2.36
2013-11-1,62.9,53.6,42.1,53.2,48.1,40.3,97,83,58,29.83,29.59,12,4,17,0.01
2013-11-2,55.7,45.1,35.9,48.6,41.9,34.8,98,89,71,30.19,29.82,12,3,17,0.04
2013-11-3,57.8,43.1,30.2,45.4,37.2,29.4,98,82,48,30.34,30.18,4,1,9,0.00
2013-11-4,60.8,51.5,42.5,48.6,44.0,38.8,89,76,60,30.29,30.21,4,1,10,0.00
2013-11-5,67.2,57.9,50.5,52.3,49.8,47.6,96,76,56,30.34,30.09,5,1,12,0.02
2013-11-6,62.1,52.4,40.4,55.6,49.1,38.8,96,89,67,30.21,29.97,11,4,16,0.51
2013-11-7,52.3,41.3,32.2,39.1,35.1,29.8,96,81,43,30.38,30.21,9,2,13,0.01
2013-11-8,56.9,41.6,27.7,43.7,33.5,27.0,98,76,42,30.42,30.17,4,1,9,0.00
2013-11-9,65.4,51.8,40.1,46.2,41.6,33.5,92,70,47,30.20,30.06,10,2,15,0.00
2013-11-10,54.6,43.6,32.3,41.5,36.4,30.8,97,77,48,30.41,30.20,8,2,11,0.00
2013-11-11,59.7,45.2,31.8,49.2,38.2,30.5,96,79,50,30.42,30.12,14,3,26,0.03
2013-11-12,38.5,31.2,22.2,33.8,25.5,20.3,93,80,64,30.73,30.41,13,6,19,0.00
2013-11-13,43.8,29.9,18.0,27.1,21.7,16.5,96,74,39,30.72,30.39,4,1,9,0.00
2013-11-14,56.7,40.9,29.2,29.5,26.3,23.5,81,59,30,30.39,30.12,6,2,13,0.00
2013-11-15,56.6,45.2,37.6,46.3,33.1,27.6,92,64,44,30.14,30.03,4,1,9,0.00
2013-11-16,65.9,58.4,47.3,62.7,54.9,45.4,96,88,73,30.03,29.70,6,3,16,0.05
2013-11-17,74.4,63.3,49.5,68.0,56.6,41.9,94,81,43,29.93,29.42,21,5,30,0.39
2013-11-18,55.5,47.0,35.1,43.6,37.5,29.1,91,71,43,30.30,29.93,15,5,21,0.00
2013-11-19,47.4,37.1,30.5,34.2,30.8,27.5,92,79,56,30.37,30.27,6,1,10,0.00
2013-11-20,50.5,42.2,30.8,41.1,35.0,27.9,90,76,61,30.29,30.13,6,1,11,0.00
2013-11-21,54.0,50.9,47.7,51.4,47.3,39.2,97,88,61,30.23,30.13,2,0,7,0.51
2013-11-22,51.9,45.6,38.3,51.1,43.2,34.7,97,91,84,30.48,30.17,13,6,17,0.05
2013-11-23,38.3,30.6,21.7,35.0,24.0,13.3,93,77,65,30.71,30.46,14,8,21,0.00
2013-11-24,30.5,22.9,16.4,19.6,14.9,11.7,87,72,48,30.79,30.52,8,2,14,0.00
2013-11-25,35.9,31.8,25.3,30.3,24.4,19.0,91,75,56,30.52,30.20,3,1,7,0.00
2013-11-26,41.5,34.6,25.5,32.4,27.9,16.8,93,77,60,30.23,30.01,16,6,23,0.00
2013-11-27,28.7,22.6,17.2,17.3,13.9,11.1,89,70,53,30.39,30.15,14,7,19,0.00
2013-11-28,43.9,28.0,15.9,26.6,20.1,13.0,94,74,47,30.51,30.30,6,2,15,0.00
2013-11-29,46.4,30.4,19.0,29.1,24.1,17.3,95,79,50,30.64,30.45,4,1,9,0.00
2013-11-30,56.1,39.6,26.6,36.0,29.2,24.3,92,69,38,30.45,30.16,5,1,12,0.00
2013-12-1,58.6,42.2,31.9,45.1,36.3,28.3,95,80,59,30.15,29.93,4,0,7,0.00
2013-12-2,56.4,43.2,31.8,47.1,39.5,30.8,97,88,69,29.93,29.73,4,0,6,0.00
2013-12-3,60.7,48.5,38.4,53.6,46.6,37.2,97,93,77,29.78,29.70,3,0,6,0.00
2013-12-4,67.4,58.2,44.0,62.4,55.7,43.1,98,92,79,29.79,29.57,11,2,15,0.04
2013-12-5,53.6,33.8,24.0,49.5,31.1,22.8,95,90,81,30.29,29.80,13,6,18,0.06
2013-12-6,24.0,22.6,19.1,22.8,20.8,13.7,95,93,79,30.56,30.24,8,5,12,0.00
2013-12-7,21.1,16.0,6.4,16.4,10.4,3.1,89,78,67,30.72,30.51,9,3,11,0.00
2013-12-8,29.9,26.4,21.2,28.9,23.6,16.3,96,89,80,30.53,30.03,10,3,14,0.00
2013-12-9,29.3,26.1,21.6,27.8,21.5,16.6,95,83,69,30.32,30.09,11,4,17,0.00
2013-12-10,31.7,19.4,7.2,20.7,15.1,5.1,95,84,61,30.40,30.27,5,1,10,0.01
2013-12-11,33.2,17.3,4.9,25.8,12.9,1.8,94,83,72,30.69,30.38,14,3,19,0.00
2013-12-12,25.7,11.7,-4.2,13.4,4.7,-6.9,91,75,49,30.69,30.38,4,1,7,0.00
2013-12-13,29.1,14.8,12.0,22.3,10.8,7.9,92,84,73,30.37,30.29,0,0,1,0.00
2013-12-14,36.4,34.7,30.2,34.7,32.7,26.5,96,92,86,30.09,29.81,13,8,20,0.08
2013-12-15,31.7,29.1,25.5,29.7,25.3,21.8,93,86,77,30.22,30.09,12,3,16,0.00
2013-12-16,44.7,35.7,28.5,36.7,32.1,27.3,97,87,72,30.11,30.02,9,1,12,0.01
2013-12-17,37.2,30.0,25.9,32.1,27.3,23.6,94,90,82,30.25,30.09,11,5,15,0.00
2013-12-18,43.3,36.5,20.7,31.9,28.4,18.7,93,73,57,30.31,30.03,3,1,8,0.00
2013-12-19,57.3,49.4,35.8,50.6,44.1,31.3,90,82,74,30.04,29.87,7,2,20,0.00
2013-12-20,64.7,57.6,45.6,60.3,54.8,44.3,96,90,85,29.87,29.76,11,4,16,0.45
2013-12-21,45.6,40.1,38.3,43.9,39.1,37.3,97,96,95,29.84,29.43,10,5,13,2.55
2013-12-22,40.4,37.5,33.1,38.6,35.2,29.7,97,92,83,30.22,29.59,11,7,21,0.00
2013-12-23,33.1,27.4,18.2,30.0,23.0,13.2,89,83,76,30.56,30.22,12,8,15,0.00
2013-12-24,24.2,17.7,11.7,16.5,10.5,4.0,82,73,58,30.68,30.46,11,3,15,0.00
2013-12-25,34.5,29.3,20.3,31.3,23.3,16.0,91,78,69,30.46,30.28,5,2,9,0.00
2013-12-26,42.2,33.1,22.8,31.1,28.2,21.3,96,83,60,30.44,30.29,5,1,8,0.00
2013-12-27,50.2,36.3,27.8,38.6,31.9,26.3,95,85,63,30.43,30.29,4,0,6,0.00
2013-12-28,49.3,38.8,29.2,39.9,34.6,27.9,97,85,67,30.29,29.95,4,0,8,0.00
2013-12-29,44.4,34.3,24.0,38.6,31.0,20.3,95,88,78,30.24,29.88,14,6,18,0.01
2013-12-30,25.3,20.2,14.7,20.9,14.8,10.9,88,79,63,30.38,30.23,9,3,13,0.00
2013-12-31,39.2,30.4,22.7,29.4,23.4,17.9,89,75,57,30.47,30.25,6,2,9,0.00
2014-1-1,46.5,37.2,27.7,35.3,31.6,25.7,95,81,63,30.26,30.00,4,1,10,0.00
2014-1-2,36.9,21.4,10.9,34.5,18.2,7.5,95,87,79,30.49,29.95,17,10,23,0.00